,,,PA_Meas_PMT16A,,PR_Meas_QMR101_102,,RH_Meas_QMH101,,SR_Meas_QMS101,,TA_Meas_QMH101,,GenWind,,GenWind,
date,time,status,PA,status,PR,status,RH,status,SR,status,TA,status,DirAvg,status,SpdAvg,
2012-07-08, 00:00:04,VALID,1007.22,VALID,0,VALID,104,VALID,0.112112,VALID,23.8481,VALID,226,VALID,0,
2012-07-08, 00:01:04,VALID,1007.22,VALID,0,VALID,104,VALID,0,VALID,23.8499,VALID,226,VALID,0,
2012-07-08, 00:02:04,VALID,1007.2,VALID,0,VALID,104,VALID,0,VALID,23.8481,VALID,226,VALID,0,
2012-07-08, 00:03:04,VALID,1007.22,VALID,0,VALID,104,VALID,0,VALID,23.8871,VALID,226,VALID,0,
2012-07-08, 00:04:04,VALID,1007.22,VALID,0,VALID,104,VALID,0.112112,VALID,23.9455,VALID,226,VALID,0,
2012-07-08, 00:05:04,VALID,1007.22,VALID,0,VALID,104,VALID,0.112112,VALID,24.004,VALID,226,VALID,0,
2012-07-08, 00:06:04,VALID,1007.24,VALID,0,VALID,104,VALID,0,VALID,24.0643,VALID,226,VALID,0.0984375,
2012-07-08, 00:07:04,VALID,1007.25,VALID,0,VALID,104,VALID,0.112112,VALID,24.1422,VALID,226,VALID,0,
2012-07-08, 00:08:04,VALID,1007.23,VALID,0,VALID,104,VALID,0,VALID,24.1617,VALID,226,VALID,0,
2012-07-08, 00:09:04,VALID,1007.26,VALID,0,VALID,104,VALID,0.112112,VALID,24.1793,VALID,226,VALID,0,
2012-07-08, 00:10:04,VALID,1007.25,VALID,0,VALID,104,VALID,0.112112,VALID,24.2396,VALID,226,VALID,0.15625,
2012-07-08, 00:11:04,VALID,1007.22,VALID,0,VALID,104,VALID,0,VALID,24.2183,VALID,226,VALID,0,
2012-07-08, 00:12:04,VALID,1007.24,VALID,0,VALID,104,VALID,0.112112,VALID,24.2396,VALID,226,VALID,0,
2012-07-08, 00:13:04,VALID,1007.26,VALID,0,VALID,104,VALID,0.112112,VALID,24.2786,VALID,226,VALID,0,
2012-07-08, 00:14:04,VALID,1007.26,VALID,0,VALID,104,VALID,0.112112,VALID,24.2963,VALID,226,VALID,0,
2012-07-08, 00:15:04,VALID,1007.26,VALID,0,VALID,104,VALID,0,VALID,24.3371,VALID,226,VALID,0,
2012-07-08, 00:16:04,VALID,1007.25,VALID,0,VALID,104,VALID,0,VALID,24.3547,VALID,226,VALID,0,
2012-07-08, 00:17:04,VALID,1007.26,VALID,0,VALID,104,VALID,0,VALID,24.3956,VALID,226,VALID,0,
2012-07-08, 00:18:04,VALID,1007.26,VALID,0,VALID,104,VALID,0,VALID,24.3937,VALID,226,VALID,0,
2012-07-08, 00:19:04,VALID,1007.23,VALID,0,VALID,104,VALID,0,VALID,24.4327,VALID,226,VALID,0,
2012-07-08, 00:20:04,VALID,1007.23,VALID,0,VALID,104,VALID,0,VALID,24.5125,VALID,226,VALID,0,
2012-07-08, 00:21:04,VALID,1007.2,VALID,0,VALID,104,VALID,0,VALID,24.5125,VALID,226,VALID,0,
2012-07-08, 00:22:04,VALID,1007.2,VALID,0,VALID,104,VALID,0.112112,VALID,24.532,VALID,226,VALID,0,
2012-07-08, 00:23:04,VALID,1007.21,VALID,0,VALID,104,VALID,0,VALID,24.532,VALID,226,VALID,0,
2012-07-08, 00:24:04,VALID,1007.17,VALID,0,VALID,104,VALID,0.112112,VALID,24.532,VALID,226,VALID,0,
2012-07-08, 00:25:04,VALID,1007.16,VALID,0,VALID,104,VALID,0,VALID,24.5515,VALID,226,VALID,0,
2012-07-08, 00:26:04,VALID,1007.17,VALID,0,VALID,104,VALID,0,VALID,24.5515,VALID,226,VALID,0,
2012-07-08, 00:27:04,VALID,1007.16,VALID,0,VALID,104,VALID,0.112112,VALID,24.5496,VALID,226,VALID,0,
2012-07-08, 00:28:04,VALID,1007.13,VALID,0,VALID,104,VALID,0.112112,VALID,24.6099,VALID,226,VALID,0,
2012-07-08, 00:29:04,VALID,1007.13,VALID,0,VALID,104,VALID,0,VALID,24.6276,VALID,226,VALID,0,
2012-07-08, 00:30:04,VALID,1007.09,VALID,0,VALID,104,VALID,0,VALID,24.6471,VALID,226,VALID,0,
2012-07-08, 00:31:04,VALID,1007.13,VALID,0,VALID,104,VALID,0.112112,VALID,24.6879,VALID,226,VALID,0,
2012-07-08, 00:32:04,VALID,1007.1,VALID,0,VALID,104,VALID,0.112112,VALID,24.7269,VALID,226,VALID,0,
2012-07-08, 00:33:04,VALID,1007.1,VALID,0,VALID,104,VALID,0.112112,VALID,24.7659,VALID,226,VALID,0,
2012-07-08, 00:34:04,VALID,1007.05,VALID,0,VALID,104,VALID,0,VALID,24.764,VALID,226,VALID,0,
2012-07-08, 00:35:04,VALID,1007.03,VALID,0,VALID,104,VALID,0.112112,VALID,24.8049,VALID,226,VALID,0,
2012-07-08, 00:36:04,VALID,1007.03,VALID,0,VALID,104,VALID,0,VALID,24.8225,VALID,226,VALID,0,
2012-07-08, 00:37:04,VALID,1007.03,VALID,0,VALID,104,VALID,0,VALID,24.8225,VALID,226,VALID,0,
2012-07-08, 00:38:04,VALID,1007.02,VALID,0,VALID,104,VALID,0,VALID,24.842,VALID,226,VALID,0,
2012-07-08, 00:39:04,VALID,1007.01,VALID,0,VALID,104,VALID,0,VALID,24.842,VALID,226,VALID,0.24375,
2012-07-08, 00:40:04,VALID,1007.01,VALID,0,VALID,104,VALID,0,VALID,24.8615,VALID,226,VALID,0.269141,
2012-07-08, 00:41:04,VALID,1006.99,VALID,0,VALID,104,VALID,0,VALID,24.9023,VALID,226,VALID,0.373047,
2012-07-08, 00:42:04,VALID,1006.97,VALID,0,VALID,104,VALID,0,VALID,24.9023,VALID,226,VALID,0.147266,
2012-07-08, 00:43:04,VALID,1006.97,VALID,0,VALID,104,VALID,0,VALID,24.9004,VALID,226,VALID,0.292188,
2012-07-08, 00:44:04,VALID,1006.95,VALID,0,VALID,104,VALID,0,VALID,24.9023,VALID,226,VALID,0.352344,
2012-07-08, 00:45:04,VALID,1006.99,VALID,0,VALID,104,VALID,0,VALID,24.9023,VALID,226,VALID,0.266797,
2012-07-08, 00:46:04,VALID,1006.96,VALID,0,VALID,104,VALID,0,VALID,24.9023,VALID,226,VALID,0.163281,
2012-07-08, 00:47:04,VALID,1006.96,VALID,0,VALID,104,VALID,0.112112,VALID,24.8809,VALID,222,VALID,0.466797,
2012-07-08, 00:48:04,VALID,1006.93,VALID,0,VALID,104,VALID,0,VALID,24.8615,VALID,222,VALID,0.0667969,
2012-07-08, 00:49:04,VALID,1006.9,VALID,0,VALID,104,VALID,0.112112,VALID,24.8615,VALID,222,VALID,0.05625,
2012-07-08, 00:50:04,VALID,1006.89,VALID,0,VALID,104,VALID,0.112112,VALID,24.8615,VALID,222,VALID,0.053125,
2012-07-08, 00:51:04,VALID,1006.89,VALID,0,VALID,104,VALID,0,VALID,24.8828,VALID,222,VALID,0,
2012-07-08, 00:52:04,VALID,1006.87,VALID,0,VALID,103.253,VALID,0,VALID,24.8809,VALID,222,VALID,0,
2012-07-08, 00:53:04,VALID,1006.89,VALID,0,VALID,100.324,VALID,0,VALID,24.9004,VALID,222,VALID,0.397266,
2012-07-08, 00:54:04,VALID,1006.91,VALID,0,VALID,98.7306,VALID,0,VALID,24.9413,VALID,222,VALID,0.416797,
2012-07-08, 00:55:04,VALID,1006.91,VALID,0,VALID,97.9986,VALID,0,VALID,24.9589,VALID,181,VALID,0.611328,
2012-07-08, 00:56:04,VALID,1006.92,VALID,0,VALID,97.7393,VALID,0.112112,VALID,24.9803,VALID,181,VALID,0.464453,
2012-07-08, 00:57:04,VALID,1006.93,VALID,0,VALID,97.8308,VALID,0.112112,VALID,24.9589,VALID,181,VALID,0.337891,
2012-07-08, 00:58:04,VALID,1006.89,VALID,0,VALID,98.1434,VALID,0.112112,VALID,24.9784,VALID,180,VALID,0.110937,
2012-07-08, 00:59:04,VALID,1006.89,VALID,0,VALID,98.235,VALID,0,VALID,24.9394,VALID,180,VALID,0.125391,
2012-07-08, 01:00:04,VALID,1006.88,VALID,0,VALID,98.4714,VALID,0.112112,VALID,24.9589,VALID,180,VALID,0.210156,
2012-07-08, 01:01:04,VALID,1006.86,VALID,0,VALID,97.9909,VALID,0,VALID,24.9784,VALID,180,VALID,0.404297,
2012-07-08, 01:02:04,VALID,1006.86,VALID,0,VALID,97.419,VALID,0,VALID,25.0193,VALID,180,VALID,0.335156,
2012-07-08, 01:03:04,VALID,1006.82,VALID,0,VALID,96.9996,VALID,0,VALID,25.0174,VALID,180,VALID,0.513281,
2012-07-08, 01:04:04,VALID,1006.83,VALID,0,VALID,96.8166,VALID,0,VALID,25.0388,VALID,180,VALID,0.497656,
2012-07-08, 01:05:04,VALID,1006.81,VALID,0,VALID,96.9157,VALID,0,VALID,25.0193,VALID,180,VALID,0.301953,
2012-07-08, 01:06:04,VALID,1006.79,VALID,0,VALID,96.9843,VALID,0,VALID,25.0193,VALID,180,VALID,0.172266,
2012-07-08, 01:07:04,VALID,1006.78,VALID,0,VALID,96.8471,VALID,0,VALID,25.0193,VALID,180,VALID,0.0941406,
2012-07-08, 01:08:04,VALID,1006.78,VALID,0,VALID,96.3666,VALID,0,VALID,25.0193,VALID,175,VALID,0.553125,
2012-07-08, 01:09:04,VALID,1006.81,VALID,0,VALID,95.993,VALID,0,VALID,25.0388,VALID,170,VALID,0.358203,
2012-07-08, 01:10:04,VALID,1006.76,VALID,0,VALID,94.4831,VALID,0,VALID,24.9979,VALID,170,VALID,0.686719,
2012-07-08, 01:11:04,VALID,1006.77,VALID,0,VALID,93.3697,VALID,0,VALID,25.0174,VALID,170,VALID,0.286328,
2012-07-08, 01:12:04,VALID,1006.76,VALID,0,VALID,93.5222,VALID,0,VALID,25.0388,VALID,170,VALID,0.407813,
2012-07-08, 01:13:04,VALID,1006.75,VALID,0,VALID,92.4394,VALID,0,VALID,25.0583,VALID,170,VALID,0.392578,
2012-07-08, 01:14:04,VALID,1006.75,VALID,0,VALID,91.6311,VALID,0,VALID,25.0564,VALID,170,VALID,0.446484,
2012-07-08, 01:15:04,VALID,1006.75,VALID,0,VALID,91.8827,VALID,0,VALID,25.0778,VALID,170,VALID,0.360156,
2012-07-08, 01:16:04,VALID,1006.75,VALID,0,VALID,90.8456,VALID,0,VALID,25.0564,VALID,170,VALID,0.471484,
2012-07-08, 01:17:04,VALID,1006.72,VALID,0,VALID,91.1354,VALID,0,VALID,25.0973,VALID,170,VALID,0.415234,
2012-07-08, 01:18:04,VALID,1006.72,VALID,0,VALID,90.8304,VALID,0,VALID,25.1167,VALID,170,VALID,0.229687,
2012-07-08, 01:19:04,VALID,1006.73,VALID,0,VALID,90.6016,VALID,0,VALID,25.0954,VALID,172,VALID,0.573047,
2012-07-08, 01:20:04,VALID,1006.73,VALID,0,VALID,90.3347,VALID,0,VALID,25.1362,VALID,174,VALID,0.375391,
2012-07-08, 01:21:04,VALID,1006.72,VALID,0,VALID,90.266,VALID,0,VALID,25.1362,VALID,174,VALID,0.323047,
2012-07-08, 01:22:04,VALID,1006.72,VALID,0,VALID,90.0602,VALID,0,VALID,25.1362,VALID,174,VALID,0.579687,
2012-07-08, 01:23:04,VALID,1006.69,VALID,0,VALID,90.0983,VALID,0,VALID,25.1362,VALID,174,VALID,0.460938,
2012-07-08, 01:24:04,VALID,1006.69,VALID,0,VALID,90.0602,VALID,0,VALID,25.1362,VALID,174,VALID,0.520703,
2012-07-08, 01:25:04,VALID,1006.67,VALID,0,VALID,90.0296,VALID,0,VALID,25.1362,VALID,174,VALID,0.411328,
2012-07-08, 01:26:04,VALID,1006.66,VALID,0,VALID,90.4338,VALID,0,VALID,25.1362,VALID,174,VALID,0.362891,
2012-07-08, 01:27:04,VALID,1006.66,VALID,0,VALID,90.7922,VALID,0,VALID,25.0954,VALID,174,VALID,0.394141,
2012-07-08, 01:28:04,VALID,1006.62,VALID,0,VALID,91.9132,VALID,0.112112,VALID,25.0759,VALID,174,VALID,0.422656,
2012-07-08, 01:29:04,VALID,1006.6,VALID,0,VALID,91.6082,VALID,0.112112,VALID,25.0564,VALID,174,VALID,0.504297,
2012-07-08, 01:30:04,VALID,1006.6,VALID,0,VALID,92.3479,VALID,0,VALID,25.0174,VALID,174,VALID,0.148438,
2012-07-08, 01:31:04,VALID,1006.59,VALID,0,VALID,92.508,VALID,0,VALID,24.9979,VALID,174,VALID,0,
2012-07-08, 01:32:04,VALID,1006.55,VALID,0,VALID,92.9351,VALID,0.112112,VALID,24.9589,VALID,174,VALID,0.0585938,
2012-07-08, 01:33:04,VALID,1006.56,VALID,0,VALID,93.2706,VALID,0.112112,VALID,24.9394,VALID,174,VALID,0,
2012-07-08, 01:34:04,VALID,1006.56,VALID,0,VALID,93.3011,VALID,0,VALID,24.9004,VALID,174,VALID,0.298828,
2012-07-08, 01:35:04,VALID,1006.56,VALID,0,VALID,93.2553,VALID,0,VALID,24.9004,VALID,174,VALID,0.421875,
2012-07-08, 01:36:04,VALID,1006.54,VALID,0,VALID,92.813,VALID,0,VALID,24.9004,VALID,175,VALID,0.433594,
2012-07-08, 01:37:04,VALID,1006.52,VALID,0,VALID,93.2172,VALID,0.112112,VALID,24.9218,VALID,175,VALID,0,
2012-07-08, 01:38:04,VALID,1006.53,VALID,0,VALID,93.4841,VALID,0.112112,VALID,24.8809,VALID,175,VALID,0,
2012-07-08, 01:39:04,VALID,1006.52,VALID,0,VALID,94.7805,VALID,0.112112,VALID,24.8615,VALID,175,VALID,0,
2012-07-08, 01:40:04,VALID,1006.5,VALID,0,VALID,96.8852,VALID,0.112112,VALID,24.8225,VALID,175,VALID,0.0722656,
2012-07-08, 01:41:04,VALID,1006.48,VALID,0,VALID,99.0509,VALID,0.112112,VALID,24.7445,VALID,175,VALID,0.117969,
2012-07-08, 01:42:04,VALID,1006.46,VALID,0,VALID,100.385,VALID,0.112112,VALID,24.6666,VALID,175,VALID,0.137109,
2012-07-08, 01:43:04,VALID,1006.48,VALID,0,VALID,101.339,VALID,0,VALID,24.6099,VALID,175,VALID,0.215625,
2012-07-08, 01:44:04,VALID,1006.46,VALID,0,VALID,101.964,VALID,0.112112,VALID,24.5106,VALID,175,VALID,0.260547,
2012-07-08, 01:45:04,VALID,1006.45,VALID,0,VALID,102.437,VALID,0.112112,VALID,24.4327,VALID,175,VALID,0.308594,
2012-07-08, 01:46:04,VALID,1006.45,VALID,0,VALID,102.795,VALID,0.112112,VALID,24.3547,VALID,175,VALID,0.387109,
2012-07-08, 01:47:04,VALID,1006.42,VALID,0,VALID,103.062,VALID,0.112112,VALID,24.2768,VALID,175,VALID,0.379297,
2012-07-08, 01:48:04,VALID,1006.38,VALID,0,VALID,103.382,VALID,0,VALID,24.2183,VALID,175,VALID,0.375391,
2012-07-08, 01:49:04,VALID,1006.37,VALID,0,VALID,103.687,VALID,0.112112,VALID,24.1599,VALID,175,VALID,0,
2012-07-08, 01:50:04,VALID,1006.4,VALID,0,VALID,103.916,VALID,0.112112,VALID,24.1209,VALID,175,VALID,0,
2012-07-08, 01:51:04,VALID,1006.37,VALID,0,VALID,104,VALID,0.112112,VALID,24.0624,VALID,175,VALID,0,
2012-07-08, 01:52:04,VALID,1006.33,VALID,0,VALID,104,VALID,0.112112,VALID,24.0235,VALID,175,VALID,0,
2012-07-08, 01:53:04,VALID,1006.33,VALID,0,VALID,104,VALID,0,VALID,24.0058,VALID,175,VALID,0,
2012-07-08, 01:54:04,VALID,1006.29,VALID,0,VALID,104,VALID,0.112112,VALID,23.9863,VALID,175,VALID,0,
2012-07-08, 01:55:04,VALID,1006.26,VALID,0,VALID,104,VALID,0,VALID,23.9455,VALID,175,VALID,0,
2012-07-08, 01:56:04,VALID,1006.25,VALID,0,VALID,104,VALID,0.112112,VALID,23.9278,VALID,175,VALID,0,
2012-07-08, 01:57:04,VALID,1006.24,VALID,0,VALID,104,VALID,0.112112,VALID,23.8871,VALID,175,VALID,0,
2012-07-08, 01:58:04,VALID,1006.22,VALID,0,VALID,104,VALID,0.112112,VALID,23.8889,VALID,175,VALID,0,
2012-07-08, 01:59:04,VALID,1006.21,VALID,0,VALID,104,VALID,0.112112,VALID,23.8481,VALID,175,VALID,0,
2012-07-08, 02:00:04,VALID,1006.21,VALID,0,VALID,104,VALID,0,VALID,23.8286,VALID,175,VALID,0,
2012-07-08, 02:01:04,VALID,1006.19,VALID,0,VALID,104,VALID,0.112112,VALID,23.8091,VALID,175,VALID,0,
2012-07-08, 02:02:04,VALID,1006.19,VALID,0,VALID,104,VALID,0.112112,VALID,23.7896,VALID,175,VALID,0,
2012-07-08, 02:03:04,VALID,1006.16,VALID,0,VALID,104,VALID,0.112112,VALID,23.7701,VALID,175,VALID,0,
2012-07-08, 02:04:04,VALID,1006.13,VALID,0,VALID,104,VALID,0,VALID,23.7507,VALID,175,VALID,0,
2012-07-08, 02:05:05,VALID,1006.15,VALID,0,VALID,104,VALID,0.112112,VALID,23.7507,VALID,175,VALID,0,
2012-07-08, 02:06:05,VALID,1006.13,VALID,0,VALID,104,VALID,0.112112,VALID,23.7117,VALID,175,VALID,0,
2012-07-08, 02:07:05,VALID,1006.11,VALID,0,VALID,104,VALID,0.112112,VALID,23.733,VALID,175,VALID,0,
2012-07-08, 02:08:05,VALID,1006.1,VALID,0,VALID,104,VALID,0.112112,VALID,23.6922,VALID,175,VALID,0,
2012-07-08, 02:09:05,VALID,1006.1,VALID,0,VALID,104,VALID,0.112112,VALID,23.6922,VALID,175,VALID,0,
2012-07-08, 02:10:05,VALID,1006.09,VALID,0,VALID,104,VALID,0.112112,VALID,23.6922,VALID,175,VALID,0,
2012-07-08, 02:11:05,VALID,1006.08,VALID,0,VALID,104,VALID,0.112112,VALID,23.6727,VALID,175,VALID,0,
2012-07-08, 02:12:05,VALID,1006.08,VALID,0,VALID,104,VALID,0.112112,VALID,23.6532,VALID,175,VALID,0,
2012-07-08, 02:13:05,VALID,1006.06,VALID,0,VALID,104,VALID,0,VALID,23.6532,VALID,175,VALID,0,
2012-07-08, 02:14:05,VALID,1006.02,VALID,0,VALID,104,VALID,0,VALID,23.655,VALID,175,VALID,0,
2012-07-08, 02:15:05,VALID,1006.04,VALID,0,VALID,104,VALID,0.112112,VALID,23.6338,VALID,175,VALID,0,
2012-07-08, 02:16:05,VALID,1006.04,VALID,0,VALID,104,VALID,0.112112,VALID,23.6143,VALID,175,VALID,0,
2012-07-08, 02:17:05,VALID,1006.04,VALID,0,VALID,104,VALID,0,VALID,23.6143,VALID,175,VALID,0,
2012-07-08, 02:18:05,VALID,1006.08,VALID,0,VALID,104,VALID,0.112112,VALID,23.5948,VALID,175,VALID,0,
2012-07-08, 02:19:05,VALID,1006.05,VALID,0,VALID,104,VALID,0.112112,VALID,23.6161,VALID,175,VALID,0,
2012-07-08, 02:20:05,VALID,1006.05,VALID,0,VALID,104,VALID,0.112112,VALID,23.5948,VALID,175,VALID,0,
2012-07-08, 02:21:05,VALID,1006.06,VALID,0,VALID,104,VALID,0.112112,VALID,23.5948,VALID,175,VALID,0,
2012-07-08, 02:22:05,VALID,1006.05,VALID,0,VALID,104,VALID,0.112112,VALID,23.5948,VALID,175,VALID,0,
2012-07-08, 02:23:05,VALID,1006.04,VALID,0,VALID,104,VALID,0.112112,VALID,23.5753,VALID,175,VALID,0,
2012-07-08, 02:24:05,VALID,1006.06,VALID,0,VALID,104,VALID,0.112112,VALID,23.5753,VALID,175,VALID,0,
2012-07-08, 02:25:05,VALID,1006.05,VALID,0,VALID,104,VALID,0.112112,VALID,23.5753,VALID,175,VALID,0,
2012-07-08, 02:26:05,VALID,1006.06,VALID,0,VALID,104,VALID,0.112112,VALID,23.5558,VALID,175,VALID,0,
2012-07-08, 02:27:05,VALID,1006.06,VALID,0,VALID,104,VALID,0.112112,VALID,23.5558,VALID,175,VALID,0,
2012-07-08, 02:28:05,VALID,1006.06,VALID,0,VALID,104,VALID,0.112112,VALID,23.5363,VALID,175,VALID,0,
2012-07-08, 02:29:05,VALID,1006.05,VALID,0,VALID,104,VALID,0.112112,VALID,23.5169,VALID,175,VALID,0,
2012-07-08, 02:30:05,VALID,1006.05,VALID,0,VALID,104,VALID,0.112112,VALID,23.4974,VALID,175,VALID,0,
2012-07-08, 02:31:05,VALID,1006.05,VALID,0,VALID,104,VALID,0.112112,VALID,23.4974,VALID,175,VALID,0,
2012-07-08, 02:32:05,VALID,1006.02,VALID,0,VALID,104,VALID,0.112112,VALID,23.4974,VALID,175,VALID,0,
2012-07-08, 02:33:05,VALID,1006.03,VALID,0,VALID,104,VALID,0.112112,VALID,23.4779,VALID,175,VALID,0,
2012-07-08, 02:34:05,VALID,1006,VALID,0,VALID,104,VALID,0.112112,VALID,23.4779,VALID,175,VALID,0,
2012-07-08, 02:35:05,VALID,1005.98,VALID,0,VALID,104,VALID,0.112112,VALID,23.4779,VALID,175,VALID,0,
2012-07-08, 02:36:05,VALID,1005.96,VALID,0,VALID,104,VALID,0.112112,VALID,23.4974,VALID,175,VALID,0,
2012-07-08, 02:37:05,VALID,1005.95,VALID,0,VALID,104,VALID,0.112112,VALID,23.4974,VALID,175,VALID,0,
2012-07-08, 02:38:05,VALID,1005.93,VALID,0,VALID,104,VALID,0,VALID,23.4974,VALID,175,VALID,0,
2012-07-08, 02:39:05,VALID,1005.94,VALID,0,VALID,104,VALID,0,VALID,23.5169,VALID,175,VALID,0,
2012-07-08, 02:40:05,VALID,1005.91,VALID,0,VALID,104,VALID,0.112112,VALID,23.4974,VALID,175,VALID,0,
2012-07-08, 02:41:05,VALID,1005.92,VALID,0,VALID,104,VALID,0,VALID,23.4974,VALID,175,VALID,0,
2012-07-08, 02:42:05,VALID,1005.89,VALID,0,VALID,104,VALID,0,VALID,23.4797,VALID,175,VALID,0,
2012-07-08, 02:43:05,VALID,1005.88,VALID,0,VALID,104,VALID,0.112112,VALID,23.4797,VALID,175,VALID,0,
2012-07-08, 02:44:05,VALID,1005.88,VALID,0,VALID,104,VALID,0.112112,VALID,23.4389,VALID,175,VALID,0,
2012-07-08, 02:45:05,VALID,1005.84,VALID,0,VALID,104,VALID,0.112112,VALID,23.4194,VALID,175,VALID,0,
2012-07-08, 02:46:05,VALID,1005.85,VALID,0,VALID,104,VALID,0.112112,VALID,23.3805,VALID,175,VALID,0,
2012-07-08, 02:47:05,VALID,1005.87,VALID,0,VALID,104,VALID,0.112112,VALID,23.3823,VALID,175,VALID,0,
2012-07-08, 02:48:05,VALID,1005.87,VALID,0,VALID,104,VALID,0.112112,VALID,23.3433,VALID,175,VALID,0,
2012-07-08, 02:49:05,VALID,1005.85,VALID,0,VALID,104,VALID,0,VALID,23.3433,VALID,175,VALID,0,
2012-07-08, 02:50:05,VALID,1005.84,VALID,0,VALID,104,VALID,0.112112,VALID,23.2831,VALID,175,VALID,0,
2012-07-08, 02:51:05,VALID,1005.87,VALID,0,VALID,104,VALID,0.112112,VALID,23.2636,VALID,175,VALID,0,
2012-07-08, 02:52:05,VALID,1005.86,VALID,0,VALID,104,VALID,0.112112,VALID,23.2246,VALID,175,VALID,0,
2012-07-08, 02:53:05,VALID,1005.88,VALID,0,VALID,104,VALID,0.112112,VALID,23.2246,VALID,175,VALID,0,
2012-07-08, 02:54:05,VALID,1005.87,VALID,0,VALID,104,VALID,0.112112,VALID,23.2441,VALID,175,VALID,0,
2012-07-08, 02:55:05,VALID,1005.9,VALID,0,VALID,104,VALID,0.112112,VALID,23.2441,VALID,175,VALID,0,
2012-07-08, 02:56:05,VALID,1005.91,VALID,0,VALID,104,VALID,0.112112,VALID,23.2441,VALID,175,VALID,0,
2012-07-08, 02:57:05,VALID,1005.94,VALID,0,VALID,104,VALID,0.112112,VALID,23.2636,VALID,175,VALID,0.360938,
2012-07-08, 02:58:05,VALID,1005.92,VALID,0,VALID,104,VALID,0.112112,VALID,23.2636,VALID,175,VALID,0.244531,
2012-07-08, 02:59:05,VALID,1005.95,VALID,0,VALID,104,VALID,0.112112,VALID,23.2831,VALID,175,VALID,0.0464844,
2012-07-08, 03:00:05,VALID,1005.9,VALID,0,VALID,104,VALID,0.112112,VALID,23.2831,VALID,175,VALID,0,
2012-07-08, 03:01:05,VALID,1005.93,VALID,0,VALID,104,VALID,0.112112,VALID,23.2831,VALID,175,VALID,0,
2012-07-08, 03:02:05,VALID,1005.93,VALID,0,VALID,104,VALID,0.112112,VALID,23.2831,VALID,175,VALID,0,
2012-07-08, 03:03:05,VALID,1005.9,VALID,0,VALID,104,VALID,0.112112,VALID,23.2831,VALID,175,VALID,0,
2012-07-08, 03:04:05,VALID,1005.9,VALID,0,VALID,104,VALID,0.112112,VALID,23.322,VALID,175,VALID,0,
2012-07-08, 03:05:05,VALID,1005.89,VALID,0,VALID,104,VALID,0.112112,VALID,23.322,VALID,175,VALID,0,
2012-07-08, 03:06:05,VALID,1005.86,VALID,0,VALID,104,VALID,0.112112,VALID,23.3628,VALID,175,VALID,0,
2012-07-08, 03:07:05,VALID,1005.87,VALID,0,VALID,104,VALID,0.112112,VALID,23.3415,VALID,175,VALID,0,
2012-07-08, 03:08:05,VALID,1005.87,VALID,0,VALID,104,VALID,0.112112,VALID,23.3415,VALID,175,VALID,0,
2012-07-08, 03:09:05,VALID,1005.85,VALID,0,VALID,104,VALID,0.112112,VALID,23.3628,VALID,175,VALID,0.395703,
2012-07-08, 03:10:05,VALID,1005.84,VALID,0,VALID,104,VALID,0.112112,VALID,23.361,VALID,175,VALID,0.214062,
2012-07-08, 03:11:05,VALID,1005.83,VALID,0,VALID,104,VALID,0.112112,VALID,23.3823,VALID,175,VALID,0.114844,
2012-07-08, 03:12:05,VALID,1005.83,VALID,0,VALID,104,VALID,0.112112,VALID,23.361,VALID,175,VALID,0.247266,
2012-07-08, 03:13:05,VALID,1005.83,VALID,0,VALID,104,VALID,0,VALID,23.3415,VALID,175,VALID,0,
2012-07-08, 03:14:05,VALID,1005.81,VALID,0,VALID,104,VALID,0,VALID,23.3645,VALID,175,VALID,0,
2012-07-08, 03:15:05,VALID,1005.82,VALID,0,VALID,104,VALID,0,VALID,23.3433,VALID,175,VALID,0,
2012-07-08, 03:16:05,VALID,1005.81,VALID,0,VALID,104,VALID,0,VALID,23.3433,VALID,175,VALID,0,
2012-07-08, 03:17:05,VALID,1005.8,VALID,0,VALID,104,VALID,0,VALID,23.3238,VALID,175,VALID,0,
2012-07-08, 03:18:05,VALID,1005.8,VALID,0,VALID,104,VALID,0,VALID,23.3238,VALID,175,VALID,0,
2012-07-08, 03:19:05,VALID,1005.77,VALID,0,VALID,104,VALID,0,VALID,23.3256,VALID,175,VALID,0,
2012-07-08, 03:20:05,VALID,1005.78,VALID,0,VALID,104,VALID,0,VALID,23.3043,VALID,175,VALID,0,
2012-07-08, 03:21:05,VALID,1005.79,VALID,0,VALID,104,VALID,0,VALID,23.3043,VALID,175,VALID,0.163281,
2012-07-08, 03:22:05,VALID,1005.78,VALID,0,VALID,104,VALID,0,VALID,23.3043,VALID,175,VALID,0.205469,
2012-07-08, 03:23:05,VALID,1005.77,VALID,0,VALID,104,VALID,0,VALID,23.3061,VALID,175,VALID,0,
2012-07-08, 03:24:05,VALID,1005.75,VALID,0,VALID,104,VALID,0.112112,VALID,23.2636,VALID,175,VALID,0,
2012-07-08, 03:25:05,VALID,1005.75,VALID,0,VALID,104,VALID,0,VALID,23.2831,VALID,175,VALID,0,
2012-07-08, 03:26:05,VALID,1005.74,VALID,0,VALID,104,VALID,0.112112,VALID,23.2848,VALID,175,VALID,0,
2012-07-08, 03:27:05,VALID,1005.75,VALID,0,VALID,104,VALID,0.112112,VALID,23.2636,VALID,175,VALID,0,
2012-07-08, 03:28:05,VALID,1005.76,VALID,0,VALID,104,VALID,0.112112,VALID,23.2441,VALID,175,VALID,0.492188,
2012-07-08, 03:29:05,VALID,1005.77,VALID,0,VALID,104,VALID,0,VALID,23.2476,VALID,167,VALID,0.442969,
2012-07-08, 03:30:05,VALID,1005.77,VALID,0,VALID,104,VALID,0,VALID,23.2264,VALID,167,VALID,0.226172,
2012-07-08, 03:31:05,VALID,1005.78,VALID,0,VALID,104,VALID,0,VALID,23.2264,VALID,167,VALID,0.383984,
2012-07-08, 03:32:05,VALID,1005.77,VALID,0,VALID,104,VALID,0,VALID,23.2069,VALID,167,VALID,0.204297,
2012-07-08, 03:33:05,VALID,1005.79,VALID,0,VALID,104,VALID,0,VALID,23.2069,VALID,167,VALID,0,
2012-07-08, 03:34:05,VALID,1005.77,VALID,0,VALID,104,VALID,0,VALID,23.2087,VALID,167,VALID,0.00351562,
2012-07-08, 03:35:05,VALID,1005.81,VALID,0,VALID,104,VALID,0,VALID,23.2087,VALID,167,VALID,0.0195313,
2012-07-08, 03:36:05,VALID,1005.79,VALID,0,VALID,104,VALID,0,VALID,23.1679,VALID,167,VALID,0.233984,
2012-07-08, 03:37:05,VALID,1005.82,VALID,0,VALID,104,VALID,0,VALID,23.1679,VALID,167,VALID,0.311328,
2012-07-08, 03:38:05,VALID,1005.82,VALID,0,VALID,104,VALID,0,VALID,23.1697,VALID,167,VALID,0.374219,
2012-07-08, 03:39:05,VALID,1005.85,VALID,0,VALID,104,VALID,0,VALID,23.1485,VALID,100,VALID,0.465234,
2012-07-08, 03:40:05,VALID,1005.82,VALID,0,VALID,104,VALID,0,VALID,23.129,VALID,97,VALID,0.494922,
2012-07-08, 03:41:05,VALID,1005.82,VALID,0,VALID,104,VALID,0,VALID,23.129,VALID,95,VALID,0.465625,
2012-07-08, 03:42:05,VALID,1005.88,VALID,0,VALID,104,VALID,0.112112,VALID,23.129,VALID,95,VALID,0.0484375,
2012-07-08, 03:43:05,VALID,1005.84,VALID,0,VALID,104,VALID,0,VALID,23.1095,VALID,95,VALID,0,
2012-07-08, 03:44:05,VALID,1005.88,VALID,0,VALID,104,VALID,0,VALID,23.1095,VALID,95,VALID,0,
2012-07-08, 03:45:05,VALID,1005.86,VALID,0,VALID,104,VALID,0,VALID,23.09,VALID,95,VALID,0,
2012-07-08, 03:46:05,VALID,1005.89,VALID,0,VALID,104,VALID,0,VALID,23.09,VALID,95,VALID,0,
2012-07-08, 03:47:05,VALID,1005.9,VALID,0,VALID,104,VALID,0,VALID,23.09,VALID,95,VALID,0,
2012-07-08, 03:48:05,VALID,1005.9,VALID,0,VALID,104,VALID,0,VALID,23.0705,VALID,95,VALID,0,
2012-07-08, 03:49:05,VALID,1005.92,VALID,0,VALID,104,VALID,0,VALID,23.0511,VALID,95,VALID,0.219922,
2012-07-08, 03:50:05,VALID,1005.91,VALID,0,VALID,104,VALID,0,VALID,23.0316,VALID,95,VALID,0.324219,
2012-07-08, 03:51:05,VALID,1005.92,VALID,0,VALID,104,VALID,0,VALID,23.0316,VALID,95,VALID,0.381641,
2012-07-08, 03:52:05,VALID,1005.94,VALID,0,VALID,104,VALID,0,VALID,23.0333,VALID,95,VALID,0,